Content
SEND FEEDBACK

Daily
Averages
Monthly
Summary
United States of America

UNALAKLEET, ALASKA


Home > North America > United States > Alaska
Elevation: 21 feet     Latitude: 63 53N     Longitude: 160 47W

WEATHER
 
SELECT A DAY
Number of Records: 437,778;   Date Range: 1/1/95 - 7/7/14
 
SHARE

PRINT THIS DATA

[ ← Previous Day ]
WEATHER ALMANAC - JANUARY 31, 2013
[ Next Day → ]
[ °C ]   °F
Weather ElementAverageHighLow
Temperature13.9 °F19.4 °F (9:56 pm)10.4 °F (12:36 am)
Dewpoint10.1 °F17.6 °F (9:56 pm)5 °F (1:16 am)
Humidity85.1 %100 % (4:36 pm)73 % (12:36 pm)
Barometer29.86 in30.07 in (11:36 pm)29.63 in (12:36 am)
Wind Speed11.6 mph21.9 mph (12:36 am)
Weather ElementAverage
Visibility9 mi
Wind DirectionESE (97 °)

Weather ElementTotal
Precipitation---
Heating Degree Days50.1 (Base 65)
Averaged from 70 records on January 31, 2013
WEATHER CONDITIONS BREAKOUT
WIND DIRECTION BREAKOUT
WEATHER BY HOUR - JANUARY 31, 2013
[ °C ]   °F
Local TimeTemperatureDewpointHumidityBarometerVisibilityWind DirectionWind SpeedGust SpeedPrecipitationEventsConditions
12:36 AM10.4 °F6.8 °F85 %29.63 in2.5 miEast (80°)21.9 mphOvercast
12:56 AM10.4 °F6.8 °F85 %29.64 in6.0 miEast (80°)20.7 mphOvercast
1:16 AM10.4 °F5.0 °F79 %29.65 in5.0 miEast (80°)19.6 mphOvercast
1:36 AM10.4 °F6.8 °F85 %29.66 in8.0 miEast (80°)18.4 mphOvercast
1:56 AM10.4 °F5.0 °F79 %29.67 in10.0 miEast (90°)17.3 mphOvercast
2:16 AM10.4 °F6.8 °F85 %29.68 in3.0 miEast (80°)17.3 mphOvercast
2:36 AM10.4 °F6.8 °F85 %29.68 in3.0 miEast (90°)17.3 mphOvercast
2:56 AM10.4 °F6.8 °F85 %29.70 in5.0 miEast (90°)16.1 mphOvercast
3:16 AM10.4 °F6.8 °F85 %29.70 in4.0 miEast (80°)16.1 mphOvercast
3:36 AM10.4 °F6.8 °F85 %29.71 in5.0 miEast (90°)16.1 mphOvercast
3:56 AM10.4 °F6.8 °F85 %29.71 in7.0 miEast (90°)16.1 mphOvercast
4:16 AM10.4 °F6.8 °F85 %29.71 in10.0 miEast (90°)16.1 mphOvercast
4:36 AM10.4 °F6.8 °F85 %29.72 in10.0 miEast (80°)16.1 mphOvercast
4:56 AM12.2 °F6.8 °F79 %29.72 in10.0 miEast (80°)16.1 mphOvercast
5:16 AM12.2 °F6.8 °F79 %29.73 in10.0 miEast (90°)13.8 mphOvercast
5:36 AM12.2 °F6.8 °F79 %29.74 in10.0 miEast (90°)13.8 mphOvercast
5:56 AM12.2 °F8.6 °F85 %29.75 in7.0 miEast (90°)10.4 mphOvercast
6:16 AM12.2 °F8.6 °F85 %29.75 in10.0 miEast (90°)13.8 mphOvercast
6:36 AM12.2 °F6.8 °F79 %29.76 in10.0 miEast (90°)13.8 mphOvercast
6:56 AM12.2 °F6.8 °F79 %29.76 in10.0 miEast (90°)16.1 mphOvercast
7:16 AM12.2 °F6.8 °F79 %29.77 in10.0 miEast (90°)13.8 mphOvercast
7:36 AM12.2 °F8.6 °F85 %29.76 in10.0 miEast (80°)20.7 mphOvercast
7:56 AM12.2 °F6.8 °F79 %29.76 in10.0 miENE (70°)20.7 mphOvercast
8:16 AM12.2 °F8.6 °F85 %29.77 in10.0 miENE (70°)19.6 mphOvercast
8:36 AM12.2 °F8.6 °F85 %29.79 in10.0 miESE (120°)5.8 mphOvercast
8:56 AM12.2 °F8.6 °F85 %29.80 in10.0 miEast (100°)11.5 mphOvercast
9:16 AM12.2 °F8.6 °F85 %29.80 in10.0 miEast (80°)13.8 mphOvercast
9:36 AM12.2 °F8.6 °F85 %29.81 in10.0 miEast (80°)15.0 mphOvercast
9:56 AM12.2 °F6.8 °F79 %29.82 in10.0 miEast (80°)12.7 mphOvercast
10:16 AM12.2 °F8.6 °F85 %29.82 in10.0 miEast (80°)18.4 mphOvercast
10:36 AM12.2 °F6.8 °F79 %29.82 in10.0 miEast (80°)18.4 mphOvercast
10:56 AM12.2 °F8.6 °F85 %29.84 in10.0 miEast (90°)12.7 mphOvercast
11:16 AM12.2 °F8.6 °F85 %29.84 in10.0 miEast (90°)13.8 mphOvercast
11:36 AM12.2 °F8.6 °F85 %29.84 in10.0 miEast (90°)17.3 mphOvercast
11:56 AM14.0 °F8.6 °F79 %29.85 in10.0 miEast (90°)16.1 mphOvercast
12:16 PM14.0 °F8.6 °F79 %29.86 in10.0 miEast (90°)16.1 mphMostly Cloudy
12:36 PM15.8 °F8.6 °F73 %29.87 in10.0 miEast (90°)15.0 mphOvercast
12:56 PM15.8 °F8.6 °F73 %29.88 in10.0 miEast (90°)12.7 mphOvercast
1:16 PM15.8 °F10.4 °F79 %29.88 in10.0 miEast (80°)13.8 mphOvercast
1:36 PM15.8 °F10.4 °F79 %29.90 in10.0 miEast (100°)9.2 mphOvercast
1:56 PM15.8 °F12.2 °F86 %29.90 in10.0 miESE (110°)6.9 mphOvercast
2:16 PM17.6 °F12.2 °F79 %29.91 in10.0 miEast (90°)9.2 mphOvercast
2:36 PM17.6 °F12.2 °F79 %29.92 in10.0 miESE (110°)8.1 mphOvercast
2:56 PM15.8 °F10.4 °F79 %29.93 in10.0 miESE (110°)8.1 mphOvercast
3:16 PM15.8 °F10.4 °F79 %29.93 in10.0 miEast (90°)3.5 mphOvercast
3:36 PM15.8 °F8.6 °F73 %29.94 in10.0 miESE (120°)6.9 mphOvercast
3:56 PM15.8 °F12.2 °F86 %29.94 in5.0 miEast (100°)6.9 mphOvercast
4:16 PM15.8 °F12.2 °F86 %29.95 in6.0 miSE (130°)8.1 mphOvercast
4:36 PM15.8 °F15.8 °F100 %29.95 in5.0 miESE (110°)5.8 mphOvercast
4:56 PM15.8 °F15.8 °F100 %29.95 in10.0 miESE (120°)8.1 mphOvercast
5:16 PM15.8 °F15.8 °F100 %29.95 in10.0 miEast (100°)4.6 mphOvercast
5:36 PM15.8 °F15.8 °F100 %29.96 in10.0 miSE (130°)3.5 mphOvercast
6:16 PM15.8 °F15.8 °F100 %29.97 in10.0 miSE (140°)5.8 mphOvercast
6:36 PM15.8 °F14.0 °F93 %29.98 in10.0 miESE (120°)6.9 mphOvercast
6:56 PM17.6 °F15.8 °F93 %29.98 in10.0 miESE (110°)5.8 mphOvercast
7:16 PM17.6 °F15.8 °F93 %29.99 in10.0 miEast (80°)4.6 mphOvercast
7:36 PM17.6 °F15.8 °F93 %29.99 in10.0 miEast (80°)4.6 mphOvercast
7:56 PM15.8 °F14.0 °F93 %30.00 in10.0 miSE (130°)6.9 mphOvercast
8:16 PM15.8 °F14.0 °F93 %30.01 in10.0 miSE (140°)5.8 mphOvercast
8:36 PM15.8 °F12.2 °F86 %30.01 in10.0 miESE (110°)5.8 mphOvercast
8:56 PM17.6 °F15.8 °F93 %30.02 in10.0 miENE (70°)4.6 mphOvercast
9:16 PM17.6 °F15.8 °F93 %30.02 in10.0 miENE (70°)5.8 mphOvercast
9:36 PM17.6 °F15.8 °F93 %30.03 in10.0 miENE (70°)5.8 mphOvercast
9:56 PM19.4 °F17.6 °F93 %30.04 in10.0 miEast (80°)4.6 mphOvercast
10:16 PM15.8 °F10.4 °F79 %30.04 in10.0 miSE (130°)6.9 mphOvercast
10:36 PM14.0 °F10.4 °F86 %30.05 in10.0 miSE (130°)8.1 mphOvercast
10:56 PM14.0 °F10.4 °F86 %30.06 in10.0 miSE (140°)6.9 mphOvercast
11:16 PM15.8 °F10.4 °F79 %30.06 in10.0 miSE (140°)5.8 mphOvercast
11:36 PM15.8 °F12.2 °F86 %30.07 in10.0 miSE (140°)6.9 mphOvercast
11:56 PM15.8 °F14.0 °F93 %30.07 in10.0 miSE (130°)6.9 mphOvercast
Hourly data recorded from PAUN, located miles away from Unalakleet, Alaska







STORIES FROM OUR PARTNERS